Location: Campestrin
(46.4667°N, 11.7167°E)
Time: 10:38:51
(UTC+00:00)

ATLAS 3B R/B - Pass Details

Date: 18 April 2021
Orbit: 1006 x 1189 km, 63.8° (Epoch: 21 April)

Event Time Altitude Azimuth Distance (km) Brightness Sun altitude
Rises 18:49:44 0° 321° (NW) 3,867 6.9 -8.0°
Reaches altitude 10° 18:52:23 10° 325° (NW) 2,935 6.1 -8.4°
Maximum altitude 18:59:19 61° 46° (NE) 1,257 3.0 -9.5°
Enters shadow 19:05:56 13° 125° (SE) 2,850 4.3 -10.5°
